User: anonymous   Login
Location: Maiden_LMO
(35.5760°N, 81.2120°W)
Time: 09:38:23
(UTC-05:00)
Language:

ADEOS II - Orbit

View from above orbital plane
View from above orbital plane
View from above satellite
View from above satellite

Ground track
Ground track

The orbit data is extracted from the following two-line orbital elements,

1 27597U 02056A   17022.86722129  .00000063  00000-0  42666-4 0  9999
2 27597  98.3503 358.7526 0001954  64.8898 295.2486 14.27262508734690
Epoch (UTC): 22 January 2017 20:48:47
Eccentricity: 0.0001954
inclination: 98.3503°
perigee height: 799 km
apogee height: 802 km
right ascension of ascending node: 358.7526°
argument of perigee: 64.8898°
revolutions per day: 14.27262508
mean anomaly at epoch: 295.2486°
orbit number at epoch: 73469

The dashed part of the orbit path shows where the satellite is in the earth's shadow,  

DLR